Regional Weather Roundup
Issued by NWS

Home | Current Version | Previous Version | Text Only | Print | Product List | Glossary On
Versions: 1 2 3 4 5 6 7 8 9 10 11 12 13 14 15 16 17 18 19 20 21 22 23 24 25 26 27 28 29 30 31 32 33 34 35 36 37 38 39 40 41 42 43 44 45 46 47 48 49 50
000
ASUS42 KFFC 212110
RWRGA
WEATHER ROUNDUP FOR GEORGIA
NATIONAL WEATHER SERVICE PEACHTREE CITY GA
500 PM EDT FRI JUL 21 2017

NOTE: "FAIR" INDICATES FEW OR NO CLOUDS BELOW 12,000 FEET WITH NO
SIGNIFICANT WEATHER AND/OR OBSTRUCTIONS TO VISIBILITY.

* = USE WITH CAUTION. THE STATIONS MARKED WITH AN ASTERISK MAY NOT
REPORT WEATHER SUCH AS PRECIPITATION, FOG, OR THUNDER AND ARE NOT
QUALITY CONTROLLED BY NWS.

THE REMARK "TC" DENOTES TEMPERATURE READING IN DEGREES CELSIUS.

GAZ001>058-212200-
NORTH GEORGIA

CITY           SKY/WX    TMP DP  RH WIND       PRES   REMARKS
ATLANTA        PTSUNNY   91  70  49 NW3       30.00F HX  96
ATHENS         PTSUNNY   91  71  51 CALM      29.99S HX  97
CHAMBLEE       MOSUNNY   94  66  39 S3        30.00S HX  97
PEACHTREE CITY SUNNY     93  70  46 CALM      29.99F HX  99
ROME           SUNNY     96  68  39 VRB3      29.98F HX 101
WEST ATLANTA   PTSUNNY   92  70  48 VRB3      29.98F HX  97
GAINESVILLE    CLOUDY    92  70  48 N6        30.04F HX  97
CARTERSVILLE   SUNNY     94  70  45 W3        29.99F HX 100


CITY           SKY/WX    TMP DP  RH WIND       PRES   REMARKS
LAWRENCEVILLE* MOSUNNY   93  68  43 NE6       30.01F HX  97
MARIETTA       MOSUNNY   93  68  44 CALM      30.00F HX  97
KENNESAW*      PTSUNNY   95  70  43 NW6       30.02S HX 101
CANTON*        SUNNY     95  64  36 CALM      30.04S HX  97
$$

GAZ059>098-102>109-212200-
CENTRAL GEORGIA

CITY           SKY/WX    TMP DP  RH WIND       PRES   REMARKS
AUGUSTA-BUSH   MOSUNNY   95  76  53 N5        29.95F HX 108
AUGUSTA-DANIEL CLOUDY    91  73  55 CALM      29.98F HX  99
COLUMBUS       CLOUDY    97  70  41 N8        29.95F HX 103
MACON          PTSUNNY   98  67  36 W5        29.96S HX 102
ROBINS AFB     SUNNY     93  74  54 SE3       29.95S HX 103


CITY           SKY/WX    TMP DP  RH WIND       PRES   REMARKS
LAGRANGE*      CLOUDY    96  72  46 NW5       29.98F HX 104
SYLVANIA*      CLOUDY    85  75  70 S5        29.99S HX  93
MILLEDGEVILLE* SUNNY     95  70  43 NW3       29.97S HX 101
$$

GAZ099>101-110>166-212200-
SOUTH GEORGIA

CITY           SKY/WX    TMP DP  RH WIND       PRES   REMARKS
SAVANNAH       MOSUNNY   95  74  50 S12       29.99S HX 105
VALDOSTA       LGT RAIN  84  74  71 NE5       30.00R HX  91
ALMA           SUNNY     94  71  47 SE8       29.96F HX 101
ST SIMONS      SUNNY     88  75  65 SE15      30.00F HX  97
FT STEWART     MOSUNNY   93  72  49 SE13      29.96S HX 101
ALBANY         PTSUNNY   87  75  67 SW9       30.00S HX  96
HUNTER AFB     SUNNY     90  74  60 S12       29.97F HX  99
MOODY AFB      CLOUDY    81  70  68 W7        29.99F
BRUNSWICK      SUNNY     90  75  62 SE13      30.00F HX 100


CITY           SKY/WX    TMP DP  RH WIND       PRES   REMARKS
BAINBRIDGE*    CLOUDY    79  77  94 SW8       30.05R
MOULTRIE*      RAIN      79  73  83 SW7       30.03R
VIDALIA*       CLOUDY    81  73  78 NE9G16    30.01R
WAYCROSS*      MOSUNNY   96  77  54 S7        29.97S HX 111
DOUGLAS*       SUNNY     90  70  51 W7        29.99F HX  95
$$



USA.gov is the U.S. government's official web portal to all federal, state and local government web resources and services.